Year,Month,Day,Hour,Minute,Value (Times are PST for temperature in C)
2013,07,15,00,00,16.10
2013,07,15,00,01,16.10
2013,07,15,00,02,16.10
2013,07,15,00,03,16.00
2013,07,15,00,04,16.00
2013,07,15,00,05,16.00
2013,07,15,00,06,16.00
2013,07,15,00,07,15.90
2013,07,15,00,08,15.90
2013,07,15,00,09,15.90
2013,07,15,00,10,15.90
2013,07,15,00,11,15.90
2013,07,15,00,12,15.90
2013,07,15,00,13,15.90
2013,07,15,00,14,15.80
2013,07,15,00,15,15.80
2013,07,15,00,16,15.80
2013,07,15,00,17,15.80
2013,07,15,00,18,15.80
2013,07,15,00,19,15.80
2013,07,15,00,20,15.70
2013,07,15,00,21,15.70
2013,07,15,00,22,15.70
2013,07,15,00,23,15.70
2013,07,15,00,24,15.60
2013,07,15,00,25,15.60
2013,07,15,00,26,15.60
2013,07,15,00,27,15.60
2013,07,15,00,28,15.50
2013,07,15,00,29,15.50
2013,07,15,00,30,15.50
2013,07,15,00,31,15.40
2013,07,15,00,32,15.40
2013,07,15,00,33,15.40
2013,07,15,00,34,15.40
2013,07,15,00,35,15.30
2013,07,15,00,36,15.30
2013,07,15,00,37,15.30
2013,07,15,00,38,15.30
2013,07,15,00,39,15.30
2013,07,15,00,40,15.30
2013,07,15,00,41,15.30
2013,07,15,00,42,15.30
2013,07,15,00,43,15.30
2013,07,15,00,44,15.30
2013,07,15,00,45,15.30
2013,07,15,00,46,15.30
2013,07,15,00,47,15.30
2013,07,15,00,48,15.30
2013,07,15,00,49,15.30
2013,07,15,00,50,15.30
2013,07,15,00,51,15.30
2013,07,15,00,52,15.30
2013,07,15,00,53,15.30
2013,07,15,00,54,15.30
2013,07,15,00,55,15.40
2013,07,15,00,56,15.40
2013,07,15,00,57,15.40
2013,07,15,00,58,15.40
2013,07,15,00,59,15.40
2013,07,15,01,00,15.40
2013,07,15,01,01,15.40
2013,07,15,01,02,15.40
2013,07,15,01,03,15.40
2013,07,15,01,04,15.40
2013,07,15,01,05,15.30
2013,07,15,01,06,15.30
2013,07,15,01,07,15.30
2013,07,15,01,08,15.30
2013,07,15,01,09,15.30
2013,07,15,01,10,15.30
2013,07,15,01,11,15.30
2013,07,15,01,12,15.30
2013,07,15,01,13,15.30
2013,07,15,01,14,15.30
2013,07,15,01,15,15.30
2013,07,15,01,16,15.30
2013,07,15,01,17,15.20
2013,07,15,01,18,15.20
2013,07,15,01,19,15.20
2013,07,15,01,20,15.20
2013,07,15,01,21,15.20
2013,07,15,01,22,15.20
2013,07,15,01,23,15.20
2013,07,15,01,24,15.20
2013,07,15,01,25,15.20
2013,07,15,01,26,15.20
2013,07,15,01,27,15.20
2013,07,15,01,28,15.10
2013,07,15,01,29,15.10
2013,07,15,01,30,15.10
2013,07,15,01,31,15.10
2013,07,15,01,32,15.10
2013,07,15,01,33,15.10
2013,07,15,01,34,15.10
2013,07,15,01,35,15.00
2013,07,15,01,36,15.00
2013,07,15,01,37,15.00
2013,07,15,01,38,14.90
2013,07,15,01,39,14.90
2013,07,15,01,40,14.90
2013,07,15,01,41,14.90
2013,07,15,01,42,14.90
2013,07,15,01,43,14.90
2013,07,15,01,44,14.90
2013,07,15,01,45,14.90
2013,07,15,01,46,14.90
2013,07,15,01,47,14.80
2013,07,15,01,48,14.80
2013,07,15,01,49,14.80
2013,07,15,01,50,14.80
2013,07,15,01,51,14.80
2013,07,15,01,52,14.90
2013,07,15,01,53,14.90
2013,07,15,01,54,14.90
2013,07,15,01,55,14.90
2013,07,15,01,56,14.90
2013,07,15,01,57,14.90
2013,07,15,01,58,14.90
2013,07,15,01,59,14.80
2013,07,15,02,00,14.80
2013,07,15,02,01,14.80
2013,07,15,02,02,14.80
2013,07,15,02,03,14.80
2013,07,15,02,04,14.80
2013,07,15,02,05,14.80
2013,07,15,02,06,14.70
2013,07,15,02,07,14.70
2013,07,15,02,08,14.70
2013,07,15,02,09,14.70
2013,07,15,02,10,14.70
2013,07,15,02,11,14.70
2013,07,15,02,12,14.70
2013,07,15,02,13,14.60
2013,07,15,02,14,14.60
2013,07,15,02,15,14.60
2013,07,15,02,16,14.60
2013,07,15,02,17,14.60
2013,07,15,02,18,14.60
2013,07,15,02,19,14.60
2013,07,15,02,20,14.60
2013,07,15,02,21,14.60
2013,07,15,02,22,14.60
2013,07,15,02,23,14.60
2013,07,15,02,24,14.60
2013,07,15,02,25,14.60
2013,07,15,02,26,14.60
2013,07,15,02,27,14.60
2013,07,15,02,28,14.50
2013,07,15,02,29,14.50
2013,07,15,02,30,14.50
2013,07,15,02,31,14.40
2013,07,15,02,32,14.40
2013,07,15,02,33,14.40
2013,07,15,02,34,14.40
2013,07,15,02,35,14.30
2013,07,15,02,36,14.30
2013,07,15,02,37,14.30
2013,07,15,02,38,14.30
2013,07,15,02,39,14.20
2013,07,15,02,40,14.20
2013,07,15,02,41,14.20
2013,07,15,02,42,14.20
2013,07,15,02,43,14.20
2013,07,15,02,44,14.20
2013,07,15,02,45,14.10
2013,07,15,02,46,14.10
2013,07,15,02,47,14.10
2013,07,15,02,48,14.10
2013,07,15,02,49,14.00
2013,07,15,02,50,14.00
2013,07,15,02,51,14.00
2013,07,15,02,52,14.00
2013,07,15,02,53,14.00
2013,07,15,02,54,14.00
2013,07,15,02,55,14.00
2013,07,15,02,56,14.00
2013,07,15,02,57,13.90
2013,07,15,02,58,14.00
2013,07,15,02,59,13.90
2013,07,15,03,00,14.00
2013,07,15,03,01,13.90
2013,07,15,03,02,14.00
2013,07,15,03,06,14.10
2013,07,15,03,07,14.10
2013,07,15,03,08,14.10
2013,07,15,03,09,14.10
2013,07,15,03,10,14.10
2013,07,15,03,11,14.10
2013,07,15,03,12,14.00
2013,07,15,03,13,14.00
2013,07,15,03,14,14.00
2013,07,15,03,15,13.90
2013,07,15,03,16,13.90
2013,07,15,03,17,13.90
2013,07,15,03,18,13.90
2013,07,15,03,19,13.90
2013,07,15,03,20,13.90
2013,07,15,03,21,13.90
2013,07,15,03,22,13.90
2013,07,15,03,23,13.80
2013,07,15,03,24,13.80
2013,07,15,03,25,13.80
2013,07,15,03,26,13.80
2013,07,15,03,27,13.80
2013,07,15,03,28,13.80
2013,07,15,03,29,13.80
2013,07,15,03,30,13.80
2013,07,15,03,31,13.80
2013,07,15,03,32,13.80
2013,07,15,03,33,13.80
2013,07,15,03,34,13.70
2013,07,15,03,35,13.70
2013,07,15,03,36,13.70
2013,07,15,03,37,13.70
2013,07,15,03,38,13.70
2013,07,15,03,39,13.60
2013,07,15,03,40,13.60
2013,07,15,03,41,13.60
2013,07,15,03,42,13.60
2013,07,15,03,43,13.60
2013,07,15,03,44,13.60
2013,07,15,03,45,13.50
2013,07,15,03,46,13.50
2013,07,15,03,47,13.50
2013,07,15,03,48,13.50
2013,07,15,03,49,13.50
2013,07,15,03,50,13.50
2013,07,15,03,51,13.50
2013,07,15,03,52,13.40
2013,07,15,03,53,13.40
2013,07,15,03,54,13.40
2013,07,15,03,55,13.40
2013,07,15,03,56,13.40
2013,07,15,03,57,13.30
2013,07,15,03,58,13.30
2013,07,15,03,59,13.30
2013,07,15,04,00,13.30
2013,07,15,04,01,13.30
2013,07,15,04,02,13.30
2013,07,15,04,03,13.30
2013,07,15,04,04,13.30
2013,07,15,04,05,13.30
2013,07,15,04,06,13.20
2013,07,15,04,07,13.20
2013,07,15,04,08,13.30
2013,07,15,04,09,13.30
2013,07,15,04,10,13.30
2013,07,15,04,11,13.30
2013,07,15,04,12,13.30
2013,07,15,04,13,13.30
2013,07,15,04,14,13.30
2013,07,15,04,15,13.30
2013,07,15,04,16,13.30
2013,07,15,04,17,13.30
2013,07,15,04,18,13.30
2013,07,15,04,19,13.20
2013,07,15,04,20,13.20
2013,07,15,04,21,13.20
2013,07,15,04,22,13.20
2013,07,15,04,23,13.20
2013,07,15,04,24,13.20
2013,07,15,04,25,13.10
2013,07,15,04,26,13.10
2013,07,15,04,27,13.10
2013,07,15,04,28,13.00
2013,07,15,04,29,13.10
2013,07,15,04,30,13.00
2013,07,15,04,31,12.90
2013,07,15,04,32,12.90
2013,07,15,04,33,12.90
2013,07,15,04,34,12.80
2013,07,15,04,35,12.80
2013,07,15,04,36,12.80
2013,07,15,04,37,12.80
2013,07,15,04,38,12.80
2013,07,15,04,39,12.80
2013,07,15,04,40,12.70
2013,07,15,04,41,12.70
2013,07,15,04,42,12.70
2013,07,15,04,43,12.70
2013,07,15,04,44,12.70
2013,07,15,04,45,12.60
2013,07,15,04,46,12.60
2013,07,15,04,47,12.60
2013,07,15,04,48,12.60
2013,07,15,04,49,12.60
2013,07,15,04,50,12.60
2013,07,15,04,51,12.60
2013,07,15,04,52,12.50
2013,07,15,04,53,12.50
2013,07,15,04,54,12.50
2013,07,15,04,55,12.50
2013,07,15,04,56,12.40
2013,07,15,04,57,12.40
2013,07,15,04,58,12.40
2013,07,15,04,59,12.40
2013,07,15,05,00,12.40
2013,07,15,05,01,12.40
2013,07,15,05,02,12.40
2013,07,15,05,03,12.40
2013,07,15,05,04,12.30
2013,07,15,05,05,12.30
2013,07,15,05,06,12.30
2013,07,15,05,07,12.30
2013,07,15,05,08,12.30
2013,07,15,05,09,12.30
2013,07,15,05,10,12.30
2013,07,15,05,11,12.30
2013,07,15,05,12,12.20
2013,07,15,05,13,12.20
2013,07,15,05,14,12.20
2013,07,15,05,15,12.20
2013,07,15,05,16,12.20
2013,07,15,05,17,12.20
2013,07,15,05,18,12.20
2013,07,15,05,19,12.20
2013,07,15,05,20,12.10
2013,07,15,05,21,12.10
2013,07,15,05,22,12.10
2013,07,15,05,23,12.10
2013,07,15,05,24,12.10
2013,07,15,05,25,12.10
2013,07,15,05,26,12.00
2013,07,15,05,27,12.00
2013,07,15,05,28,12.00
2013,07,15,05,29,12.00
2013,07,15,05,30,11.90
2013,07,15,05,31,11.90
2013,07,15,05,32,11.90
2013,07,15,05,33,11.90
2013,07,15,05,34,11.90
2013,07,15,05,35,11.90
2013,07,15,05,36,11.90
2013,07,15,05,37,11.90
2013,07,15,05,38,11.80
2013,07,15,05,39,11.80
2013,07,15,05,40,11.80
2013,07,15,05,41,11.80
2013,07,15,05,42,11.80
2013,07,15,05,43,11.80
2013,07,15,05,44,11.80
2013,07,15,05,45,11.80
2013,07,15,05,46,11.80
2013,07,15,05,47,11.80
2013,07,15,05,48,11.80
2013,07,15,05,49,11.80
2013,07,15,05,50,11.80
2013,07,15,05,51,11.80
2013,07,15,05,52,11.80
2013,07,15,05,53,11.80
2013,07,15,05,54,11.80
2013,07,15,05,55,11.80
2013,07,15,05,56,11.80
2013,07,15,05,57,11.80
2013,07,15,05,58,11.80
2013,07,15,05,59,11.80
2013,07,15,06,00,11.80
2013,07,15,06,01,11.80
2013,07,15,06,02,11.80
2013,07,15,06,03,11.80
2013,07,15,06,04,11.80
2013,07,15,06,05,11.80
2013,07,15,06,06,11.80
2013,07,15,06,07,11.80
2013,07,15,06,08,11.80
2013,07,15,06,09,11.80
2013,07,15,06,10,11.80
2013,07,15,06,11,11.80
2013,07,15,06,12,11.70
2013,07,15,06,13,11.70
2013,07,15,06,14,11.70
2013,07,15,06,15,11.70
2013,07,15,06,16,11.70
2013,07,15,06,17,11.70
2013,07,15,06,18,11.70
2013,07,15,06,19,11.70
2013,07,15,06,20,11.80
2013,07,15,06,21,11.80
2013,07,15,06,22,11.80
2013,07,15,06,23,11.80
2013,07,15,06,24,11.80
2013,07,15,06,25,11.80
2013,07,15,06,26,11.80
2013,07,15,06,27,11.80
2013,07,15,06,28,11.80
2013,07,15,06,29,11.80
2013,07,15,06,30,11.80
2013,07,15,06,31,11.80
2013,07,15,06,32,11.80
2013,07,15,06,33,11.80
2013,07,15,06,34,11.80
2013,07,15,06,35,11.80
2013,07,15,06,36,11.80
2013,07,15,06,37,11.80
2013,07,15,06,38,11.80
2013,07,15,06,39,11.80
2013,07,15,06,40,11.70
2013,07,15,06,41,11.70
2013,07,15,06,42,11.70
2013,07,15,06,43,11.70
2013,07,15,06,44,11.70
2013,07,15,06,45,11.80
2013,07,15,06,46,11.80
2013,07,15,06,47,11.80
2013,07,15,06,48,11.80
2013,07,15,06,49,11.90
2013,07,15,06,50,12.00
2013,07,15,06,51,12.00
2013,07,15,06,52,12.10
2013,07,15,06,53,12.10
2013,07,15,06,54,12.20
2013,07,15,06,55,12.30
2013,07,15,06,56,12.30
2013,07,15,06,57,12.40
2013,07,15,06,58,12.50
2013,07,15,06,59,12.50
2013,07,15,07,00,12.60
2013,07,15,07,01,12.60
2013,07,15,07,02,12.70
2013,07,15,07,03,12.70
2013,07,15,07,04,12.80
2013,07,15,07,05,12.80
2013,07,15,07,06,12.80
2013,07,15,07,07,12.90
2013,07,15,07,08,12.90
2013,07,15,07,09,13.00
2013,07,15,07,10,13.10
2013,07,15,07,11,13.10
2013,07,15,07,12,13.20
2013,07,15,07,13,13.20
2013,07,15,07,14,13.20
2013,07,15,07,15,13.30
2013,07,15,07,16,13.30
2013,07,15,07,17,13.30
2013,07,15,07,18,13.40
2013,07,15,07,19,13.40
2013,07,15,07,20,13.50
2013,07,15,07,21,13.60
2013,07,15,07,22,13.70
2013,07,15,07,23,13.70
2013,07,15,07,24,13.70
2013,07,15,07,25,13.80
2013,07,15,07,26,13.80
2013,07,15,07,27,13.90
2013,07,15,07,28,13.90
2013,07,15,07,29,14.00
2013,07,15,07,30,14.00
2013,07,15,07,31,14.10
2013,07,15,07,32,14.10
2013,07,15,07,33,14.20
2013,07,15,07,34,14.20
2013,07,15,07,35,14.30
2013,07,15,07,36,14.30
2013,07,15,07,37,14.40
2013,07,15,07,38,14.40
2013,07,15,07,39,14.40
2013,07,15,07,40,14.40
2013,07,15,07,41,14.50
2013,07,15,07,42,14.50
2013,07,15,07,43,14.60
2013,07,15,07,44,14.60
2013,07,15,07,45,14.60
2013,07,15,07,46,14.60
2013,07,15,07,47,14.60
2013,07,15,07,48,14.60
2013,07,15,07,49,14.60
2013,07,15,07,50,14.60
2013,07,15,07,51,14.70
2013,07,15,07,52,14.70
2013,07,15,07,53,14.80
2013,07,15,07,54,14.80
2013,07,15,07,55,14.80
2013,07,15,07,56,14.90
2013,07,15,07,57,14.90
2013,07,15,07,58,14.90
2013,07,15,07,59,15.00
2013,07,15,08,00,15.00
2013,07,15,08,01,15.10
2013,07,15,08,02,15.10
2013,07,15,08,03,15.10
2013,07,15,08,04,15.10
2013,07,15,08,05,15.20
2013,07,15,08,06,15.20
2013,07,15,08,07,15.30
2013,07,15,08,08,15.30
2013,07,15,08,09,15.40
2013,07,15,08,10,15.40
2013,07,15,08,11,15.50
2013,07,15,08,12,15.60
2013,07,15,08,13,15.60
2013,07,15,08,14,15.70
2013,07,15,08,15,15.80
2013,07,15,08,16,15.80
2013,07,15,08,17,15.80
2013,07,15,08,18,15.80
2013,07,15,08,19,15.80
2013,07,15,08,20,15.90
2013,07,15,08,21,15.90
2013,07,15,08,22,16.00
2013,07,15,08,23,16.10
2013,07,15,08,24,16.30
2013,07,15,08,25,16.40
2013,07,15,08,26,16.40
2013,07,15,08,27,16.40
2013,07,15,08,28,16.30
2013,07,15,08,29,16.30
2013,07,15,08,30,16.30
2013,07,15,08,31,16.30
2013,07,15,08,32,16.30
2013,07,15,08,33,16.30
2013,07,15,08,34,16.30
2013,07,15,08,35,16.30
2013,07,15,08,36,16.30
2013,07,15,08,37,16.40
2013,07,15,08,38,16.40
2013,07,15,08,39,16.40
2013,07,15,08,40,16.40
2013,07,15,08,41,16.50
2013,07,15,08,42,16.60
2013,07,15,08,43,16.80
2013,07,15,08,44,16.90
2013,07,15,08,45,17.00
2013,07,15,08,46,17.10
2013,07,15,08,47,17.20
2013,07,15,08,48,17.20
2013,07,15,08,49,17.20
2013,07,15,08,50,17.20
2013,07,15,08,51,17.20
2013,07,15,08,52,17.20
2013,07,15,08,53,17.20
2013,07,15,08,54,17.20
2013,07,15,08,55,17.20
2013,07,15,08,56,17.30
2013,07,15,08,57,17.30
2013,07,15,08,58,17.30
2013,07,15,08,59,17.40
2013,07,15,09,00,17.40
2013,07,15,09,01,17.40
2013,07,15,09,02,17.40
2013,07,15,09,03,17.40
2013,07,15,09,04,17.30
2013,07,15,09,05,17.30
2013,07,15,09,06,17.30
2013,07,15,09,07,17.30
2013,07,15,09,08,17.30
2013,07,15,09,09,17.40
2013,07,15,09,10,17.40
2013,07,15,09,11,17.50
2013,07,15,09,12,17.50
2013,07,15,09,13,17.60
2013,07,15,09,14,17.70
2013,07,15,09,15,17.80
2013,07,15,09,16,17.90
2013,07,15,09,17,17.90
2013,07,15,09,18,18.00
2013,07,15,09,19,18.10
2013,07,15,09,20,18.30
2013,07,15,09,21,18.40
2013,07,15,09,22,18.50
2013,07,15,09,23,18.60
2013,07,15,09,24,18.70
2013,07,15,09,25,18.80
2013,07,15,09,26,18.80
2013,07,15,09,27,18.80
2013,07,15,09,28,18.80
2013,07,15,09,29,18.80
2013,07,15,09,30,18.80
2013,07,15,09,31,18.80
2013,07,15,09,32,18.90
2013,07,15,09,33,18.90
2013,07,15,09,34,18.90
2013,07,15,09,35,19.00
2013,07,15,09,36,19.00
2013,07,15,09,37,19.10
2013,07,15,09,38,19.10
2013,07,15,09,39,19.10
2013,07,15,09,40,19.20
2013,07,15,09,41,19.20
2013,07,15,09,42,19.20
2013,07,15,09,43,19.20
2013,07,15,09,44,19.20
2013,07,15,09,45,19.30
2013,07,15,09,46,19.40
2013,07,15,09,47,19.40
2013,07,15,09,48,19.50
2013,07,15,09,49,19.60
2013,07,15,09,50,19.80
2013,07,15,09,51,19.90
2013,07,15,09,52,19.90
2013,07,15,09,53,20.00
2013,07,15,09,54,20.10
2013,07,15,09,55,20.10
2013,07,15,09,56,20.10
2013,07,15,09,57,20.20
2013,07,15,09,58,20.20
2013,07,15,09,59,20.20
2013,07,15,10,00,20.30
2013,07,15,10,01,20.30
2013,07,15,10,02,20.30
2013,07,15,10,03,20.40
2013,07,15,10,04,20.50
2013,07,15,10,05,20.50
2013,07,15,10,06,20.60
2013,07,15,10,07,20.60
2013,07,15,10,08,20.60
2013,07,15,10,09,20.60
2013,07,15,10,10,20.70
2013,07,15,10,11,20.70
2013,07,15,10,12,20.70
2013,07,15,10,13,20.70
2013,07,15,10,14,20.70
2013,07,15,10,15,20.70
2013,07,15,10,16,20.80
2013,07,15,10,17,20.80
2013,07,15,10,18,20.80
2013,07,15,10,19,20.80
2013,07,15,10,20,20.90
2013,07,15,10,21,21.00
2013,07,15,10,22,21.10
2013,07,15,10,23,21.10
2013,07,15,10,24,21.20
2013,07,15,10,25,21.20
2013,07,15,10,26,21.10
2013,07,15,10,27,21.10
2013,07,15,10,28,21.10
2013,07,15,10,29,21.10
2013,07,15,10,30,21.10
2013,07,15,10,31,21.20
2013,07,15,10,32,21.20
2013,07,15,10,33,21.30
2013,07,15,10,34,21.30
2013,07,15,10,35,21.20
2013,07,15,10,36,21.20
2013,07,15,10,37,21.30
2013,07,15,10,38,21.30
2013,07,15,10,39,21.40
2013,07,15,10,40,21.50
2013,07,15,10,41,21.60
2013,07,15,10,42,21.70
2013,07,15,10,43,21.80
2013,07,15,10,44,21.90
2013,07,15,10,45,21.90
2013,07,15,10,46,21.90
2013,07,15,10,47,21.90
2013,07,15,10,48,21.80
2013,07,15,10,49,21.80
2013,07,15,10,50,21.80
2013,07,15,10,51,21.90
2013,07,15,10,52,22.00
2013,07,15,10,53,22.00
2013,07,15,10,54,22.00
2013,07,15,10,55,22.10
2013,07,15,10,56,22.10
2013,07,15,10,57,22.10
2013,07,15,10,58,22.20
2013,07,15,10,59,22.20
2013,07,15,11,00,22.30
2013,07,15,11,01,22.30
2013,07,15,11,02,22.40
2013,07,15,11,03,22.50
2013,07,15,11,04,22.50
2013,07,15,11,05,22.50
2013,07,15,11,06,22.50
2013,07,15,11,07,22.50
2013,07,15,11,08,22.50
2013,07,15,11,09,22.60
2013,07,15,11,10,22.60
2013,07,15,11,11,22.80
2013,07,15,11,12,22.80
2013,07,15,11,13,22.90
2013,07,15,11,14,22.90
2013,07,15,11,15,22.90
2013,07,15,11,16,22.80
2013,07,15,11,17,22.80
2013,07,15,11,18,22.80
2013,07,15,11,19,22.80
2013,07,15,11,20,22.90
2013,07,15,11,21,22.90
2013,07,15,11,22,22.80
2013,07,15,11,23,22.80
2013,07,15,11,24,22.80
2013,07,15,11,25,22.90
2013,07,15,11,26,23.00
2013,07,15,11,27,23.00
2013,07,15,11,28,23.10
2013,07,15,11,29,23.10
2013,07,15,11,30,23.20
2013,07,15,11,31,23.20
2013,07,15,11,32,23.20
2013,07,15,11,33,23.20
2013,07,15,11,34,23.20
2013,07,15,11,35,23.20
2013,07,15,11,36,23.20
2013,07,15,11,37,23.20
2013,07,15,11,38,23.30
2013,07,15,11,39,23.30
2013,07,15,11,40,23.30
2013,07,15,11,41,23.40
2013,07,15,11,42,23.50
2013,07,15,11,43,23.50
2013,07,15,11,44,23.60
2013,07,15,11,45,23.70
2013,07,15,11,46,23.70
2013,07,15,11,47,23.60
2013,07,15,11,48,23.60
2013,07,15,11,49,23.40
2013,07,15,11,50,23.40
2013,07,15,11,51,23.40
2013,07,15,11,52,23.40
2013,07,15,11,53,23.40
2013,07,15,11,54,23.40
2013,07,15,11,55,23.40
2013,07,15,11,56,23.40
2013,07,15,11,57,23.40
2013,07,15,11,58,23.50
2013,07,15,11,59,23.60
2013,07,15,12,00,23.70
2013,07,15,12,01,23.80
2013,07,15,12,02,23.90
2013,07,15,12,03,23.90
2013,07,15,12,04,23.90
2013,07,15,12,05,23.90
2013,07,15,12,06,23.90
2013,07,15,12,07,23.90
2013,07,15,12,08,23.90
2013,07,15,12,09,23.90
2013,07,15,12,10,23.90
2013,07,15,12,11,23.90
2013,07,15,12,12,23.90
2013,07,15,12,13,23.90
2013,07,15,12,14,24.00
2013,07,15,12,15,24.00
2013,07,15,12,16,24.00
2013,07,15,12,17,24.10
2013,07,15,12,18,24.10
2013,07,15,12,19,24.10
2013,07,15,12,20,24.20
2013,07,15,12,21,24.30
2013,07,15,12,22,24.30
2013,07,15,12,23,24.30
2013,07,15,12,24,24.30
2013,07,15,12,25,24.30
2013,07,15,12,26,24.30
2013,07,15,12,27,24.40
2013,07,15,12,28,24.50
2013,07,15,12,29,24.50
2013,07,15,12,30,24.60
2013,07,15,12,31,24.80
2013,07,15,12,32,24.90
2013,07,15,12,33,24.90
2013,07,15,12,34,24.90
2013,07,15,12,35,25.00
2013,07,15,12,36,25.10
2013,07,15,12,37,25.00
2013,07,15,12,38,25.00
2013,07,15,12,39,25.00
2013,07,15,12,40,25.00
2013,07,15,12,41,24.90
2013,07,15,12,42,25.00
2013,07,15,12,43,25.00
2013,07,15,12,44,25.10
2013,07,15,12,45,25.20
2013,07,15,12,46,25.10
2013,07,15,12,47,25.00
2013,07,15,12,48,25.00
2013,07,15,12,49,25.10
2013,07,15,12,50,25.10
2013,07,15,12,51,25.10
2013,07,15,12,52,25.10
2013,07,15,12,53,25.20
2013,07,15,12,54,25.20
2013,07,15,12,55,25.30
2013,07,15,12,56,25.30
2013,07,15,12,57,25.30
2013,07,15,12,58,25.30
2013,07,15,12,59,25.40
2013,07,15,13,00,25.40
2013,07,15,13,01,25.50
2013,07,15,13,02,25.50
2013,07,15,13,03,25.50
2013,07,15,13,04,25.50
2013,07,15,13,05,25.40
2013,07,15,13,06,25.40
2013,07,15,13,07,25.40
2013,07,15,13,08,25.30
2013,07,15,13,09,25.30
2013,07,15,13,10,25.30
2013,07,15,13,11,25.40
2013,07,15,13,12,25.40
2013,07,15,13,13,25.50
2013,07,15,13,14,25.50
2013,07,15,13,15,25.50
2013,07,15,13,16,25.60
2013,07,15,13,17,25.60
2013,07,15,13,18,25.70
2013,07,15,13,19,25.70
2013,07,15,13,20,25.70
2013,07,15,13,21,25.70
2013,07,15,13,22,25.80
2013,07,15,13,23,25.80
2013,07,15,13,24,25.80
2013,07,15,13,25,25.80
2013,07,15,13,26,25.70
2013,07,15,13,27,25.60
2013,07,15,13,28,25.60
2013,07,15,13,29,25.70
2013,07,15,13,30,25.70
2013,07,15,13,31,25.80
2013,07,15,13,32,25.80
2013,07,15,13,33,25.90
2013,07,15,13,34,25.90
2013,07,15,13,35,25.90
2013,07,15,13,36,25.80
2013,07,15,13,37,25.80
2013,07,15,13,38,25.80
2013,07,15,13,39,25.80
2013,07,15,13,40,25.80
2013,07,15,13,41,26.00
2013,07,15,13,42,26.20
2013,07,15,13,43,26.20
2013,07,15,13,44,26.10
2013,07,15,13,45,26.10
2013,07,15,13,46,26.10
2013,07,15,13,47,26.10
2013,07,15,13,48,26.20
2013,07,15,13,49,26.20
2013,07,15,13,50,26.20
2013,07,15,13,51,26.10
2013,07,15,13,52,26.10
2013,07,15,13,53,26.10
2013,07,15,13,54,26.20
2013,07,15,13,55,26.20
2013,07,15,13,56,26.20
2013,07,15,13,57,26.20
2013,07,15,13,58,26.20
2013,07,15,13,59,26.30
2013,07,15,14,00,26.40
2013,07,15,14,01,26.40
2013,07,15,14,02,26.50
2013,07,15,14,03,26.50
2013,07,15,14,04,26.50
2013,07,15,14,05,26.50
2013,07,15,14,06,26.50
2013,07,15,14,07,26.50
2013,07,15,14,08,26.60
2013,07,15,14,09,26.60
2013,07,15,14,10,26.60
2013,07,15,14,11,26.60
2013,07,15,14,12,26.60
2013,07,15,14,13,26.60
2013,07,15,14,14,26.60
2013,07,15,14,15,26.60
2013,07,15,14,16,26.70
2013,07,15,14,17,26.60
2013,07,15,14,18,26.60
2013,07,15,14,19,26.60
2013,07,15,14,20,26.60
2013,07,15,14,21,26.60
2013,07,15,14,22,26.50
2013,07,15,14,23,26.50
2013,07,15,14,24,26.50
2013,07,15,14,25,26.60
2013,07,15,14,26,26.60
2013,07,15,14,27,26.70
2013,07,15,14,28,26.90
2013,07,15,14,29,26.90
2013,07,15,14,30,27.00
2013,07,15,14,31,27.10
2013,07,15,14,32,27.20
2013,07,15,14,33,27.20
2013,07,15,14,34,27.10
2013,07,15,14,35,27.00
2013,07,15,14,36,26.90
2013,07,15,14,37,26.90
2013,07,15,14,38,26.80
2013,07,15,14,39,26.70
2013,07,15,14,40,26.70
2013,07,15,14,41,26.80
2013,07,15,14,42,26.80
2013,07,15,14,43,26.80
2013,07,15,14,44,26.80
2013,07,15,14,45,26.80
2013,07,15,14,46,26.70
2013,07,15,14,47,26.70
2013,07,15,14,48,26.70
2013,07,15,14,49,26.70
2013,07,15,14,50,26.70
2013,07,15,14,51,26.70
2013,07,15,14,52,26.70
2013,07,15,14,53,26.80
2013,07,15,14,54,26.80
2013,07,15,14,55,26.80
2013,07,15,14,56,26.90
2013,07,15,14,57,27.00
2013,07,15,14,58,27.20
2013,07,15,14,59,27.30
2013,07,15,15,00,27.30
2013,07,15,15,01,27.40
2013,07,15,15,02,27.30
2013,07,15,15,03,27.30
2013,07,15,15,04,27.20
2013,07,15,15,05,27.20
2013,07,15,15,06,27.20
2013,07,15,15,07,27.20
2013,07,15,15,08,27.20
2013,07,15,15,09,27.30
2013,07,15,15,10,27.40
2013,07,15,15,11,27.40
2013,07,15,15,12,27.40
2013,07,15,15,13,27.40
2013,07,15,15,14,27.40
2013,07,15,15,15,27.30
2013,07,15,15,16,27.40
2013,07,15,15,17,27.40
2013,07,15,15,18,27.40
2013,07,15,15,19,27.40
2013,07,15,15,20,27.40
2013,07,15,15,21,27.40
2013,07,15,15,22,27.40
2013,07,15,15,23,27.50
2013,07,15,15,24,27.60
2013,07,15,15,25,27.70
2013,07,15,15,26,27.70
2013,07,15,15,27,27.80
2013,07,15,15,28,27.70
2013,07,15,15,29,27.70
2013,07,15,15,30,27.60
2013,07,15,15,31,27.50
2013,07,15,15,32,27.60
2013,07,15,15,33,27.70
2013,07,15,15,34,27.80
2013,07,15,15,35,27.90
2013,07,15,15,36,27.90
2013,07,15,15,37,27.90
2013,07,15,15,38,27.80
2013,07,15,15,39,27.80
2013,07,15,15,40,27.80
2013,07,15,15,41,27.80
2013,07,15,15,42,27.80
2013,07,15,15,43,27.80
2013,07,15,15,44,27.80
2013,07,15,15,45,27.80
2013,07,15,15,46,27.80
2013,07,15,15,47,27.80
2013,07,15,15,48,27.80
2013,07,15,15,49,27.80
2013,07,15,15,50,27.90
2013,07,15,15,51,28.00
2013,07,15,15,52,28.00
2013,07,15,15,53,28.10
2013,07,15,15,54,28.10
2013,07,15,15,55,28.10
2013,07,15,15,56,28.10
2013,07,15,15,57,28.00
2013,07,15,15,58,28.10
2013,07,15,15,59,28.10
2013,07,15,16,00,28.10
2013,07,15,16,01,28.10
2013,07,15,16,02,28.10
2013,07,15,16,03,28.10
2013,07,15,16,04,28.10
2013,07,15,16,05,28.10
2013,07,15,16,06,28.10
2013,07,15,16,07,28.10
2013,07,15,16,08,28.20
2013,07,15,16,09,28.30
2013,07,15,16,10,28.40
2013,07,15,16,11,28.30
2013,07,15,16,12,28.30
2013,07,15,16,13,28.30
2013,07,15,16,14,28.30
2013,07,15,16,15,28.20
2013,07,15,16,16,28.10
2013,07,15,16,17,28.10
2013,07,15,16,18,28.10
2013,07,15,16,19,28.20
2013,07,15,16,20,28.20
2013,07,15,16,21,28.10
2013,07,15,16,22,28.10
2013,07,15,16,23,28.00
2013,07,15,16,24,28.00
2013,07,15,16,25,28.00
2013,07,15,16,26,28.00
2013,07,15,16,27,28.00
2013,07,15,16,28,28.10
2013,07,15,16,29,28.10
2013,07,15,16,30,28.10
2013,07,15,16,31,27.90
2013,07,15,16,32,27.80
2013,07,15,16,33,27.80
2013,07,15,16,34,27.70
2013,07,15,16,35,27.70
2013,07,15,16,36,27.70
2013,07,15,16,37,27.80
2013,07,15,16,38,27.90
2013,07,15,16,39,28.00
2013,07,15,16,40,28.10
2013,07,15,16,41,28.10
2013,07,15,16,42,28.10
2013,07,15,16,43,28.00
2013,07,15,16,44,28.00
2013,07,15,16,45,28.00
2013,07,15,16,46,28.00
2013,07,15,16,47,28.10
2013,07,15,16,48,28.10
2013,07,15,16,49,28.20
2013,07,15,16,50,28.20
2013,07,15,16,51,28.10
2013,07,15,16,52,28.20
2013,07,15,16,53,28.20
2013,07,15,16,54,28.20
2013,07,15,16,55,28.20
2013,07,15,16,56,28.20
2013,07,15,16,57,28.10
2013,07,15,16,58,28.10
2013,07,15,16,59,28.10
2013,07,15,17,00,28.10
2013,07,15,17,01,28.20
2013,07,15,17,02,28.10
2013,07,15,17,03,28.20
2013,07,15,17,04,28.20
2013,07,15,17,05,28.20
2013,07,15,17,06,28.20
2013,07,15,17,07,28.20
2013,07,15,17,08,28.20
2013,07,15,17,09,28.20
2013,07,15,17,10,28.20
2013,07,15,17,11,28.20
2013,07,15,17,12,28.20
2013,07,15,17,13,28.30
2013,07,15,17,14,28.30
2013,07,15,17,15,28.20
2013,07,15,17,16,28.20
2013,07,15,17,17,28.10
2013,07,15,17,18,28.00
2013,07,15,17,19,27.90
2013,07,15,17,20,27.80
2013,07,15,17,21,27.80
2013,07,15,17,22,27.80